This demonstration page uses our WeatherBlox Daily Observations layout. Learn more.

Left ArrowRight Arrow

Hourly Observations for May 15, 2015

Temp ( °F °C ) Dew Point ( °F °C ) Humidity (%) Winds ( mph kmh ) Pressure ( in mb ) Visibility ( mi km ) Precip ( " mm )
12:53 am 00:53 Clear 66 18.9 61 16.1 84 84 S 9 15 29.80 1009 10 16 0.00 0.00
1:53 am 01:53 Clear 64 17.8 58 14.4 81 81 SSW 5 7 29.78 1008 10 16 0.00 0.00
2:53 am 02:53 Clear 63 17.2 57 13.9 81 81 SW 3 6 29.76 1008 10 16 0.00 0.00
3:53 am 03:53 undefined 62 16.7 57 13.9 84 84 SE 8 13 29.75 1007 10 16 0.00 0.00
4:53 am 04:53 Clear 62 16.7 57 13.9 84 84 ESE 8 13 29.78 1008 10 16 0.00 0.00
5:53 am 05:53 Clear 62 16.7 58 14.4 86 86 ESE 5 7 29.79 1009 10 16 0.00 0.00
6:07 am 06:07 Partly Cloudy 63 17.2 59 15 87 87 SE 9 15 29.83 1010 7 11 0.00 0.00
6:16 am 06:16 Mostly Cloudy with Mist and Fog 63 17.2 60 15.6 90 90 ESE 10 17 29.83 1010 3 4 0.00 0.00
6:23 am 06:23 Mostly Cloudy with Mist and Fog 63 17.2 60 15.6 90 90 ESE 12 19 29.83 1010 1 1 0.00 0.00
6:48 am 06:48 Cloudy with Mist and Fog 64 18 61 16 88 88 ESE 12 19 29.83 1010 2 3 0.00 0.00
6:53 am 06:53 Cloudy with Mist and Fog 64 17.8 61 16.1 90 90 SSE 8 13 29.81 1010 3 5 0.00 0.00
7:53 am 07:53 Mostly Cloudy with Mist and Fog 64 17.8 61 16.1 90 90 SE 15 24 29.85 1011 6 10 0.00 0.00
8:19 am 08:19 undefined 65 18.3 61 16.1 87 87 SE 14 22 29.85 1011 9 14 0.00 0.00
8:53 am 08:53 undefined 68 20 61 16.1 78 78 SE 12 19 29.84 1011 10 16 0.00 0.00
9:53 am 09:53 Sunny 71 21.7 59 15 66 66 SSE 15 24 29.84 1011 10 16 0.00 0.00
10:53 am 10:53 Sunny 75 23.9 58 14.4 55 55 S 10 17 29.83 1010 10 16 0.00 0.00
11:53 am 11:53 Sunny 78 25.6 57 13.9 48 48 S 8 13 29.81 1010 10 16 0.00 0.00
12:53 pm 12:53 Sunny 82 27.8 52 11.1 35 35 SW 15 24 29.80 1009 10 16 0.00 0.00
1:53 pm 13:53 Sunny 84 28.9 50 10 31 31 VRB 7 11 29.76 1008 10 16 0.00 0.00
2:53 pm 14:53 Mostly Cloudy 84 28.9 47 8.3 27 27 S 9 15 29.73 1007 10 16 0.00 0.00
3:53 pm 15:53 Mostly Cloudy 87 30.6 46 7.8 24 24 WSW 12 19 29.69 1006 10 16 0.00 0.00
4:53 pm 16:53 Mostly Sunny 87 30.6 45 7.2 23 23 SSW 9 15 29.66 1004 10 16 0.00 0.00
5:53 pm 17:53 Sunny 87 30.6 44 6.7 22 22 S 10 17 29.64 1004 10 16 0.00 0.00
6:53 pm 18:53 Sunny 86 30 51 10.6 30 30 ESE 13 20 29.62 1003 10 16 0.00 0.00
7:53 pm 19:53 Sunny 83 28.3 55 12.8 38 38 ESE 17 28 29.62 1003 10 16 0.00 0.00
8:53 pm 20:53 Clear 79 26.1 57 13.9 47 47 ESE 16 26 29.61 1003 10 16 0.00 0.00
9:19 pm 21:19 Clear with Nearby Thunderstorms 79 26.1 57 13.9 47 47 ESE 18 30 29.56 1001 10 16 0.00 0.00
9:29 pm 21:29 Partly Cloudy with Thunderstorms 78 25.6 57 13.9 48 48 ESE 16 26 29.56 1001 10 16 0.00 0.00
9:48 pm 21:48 Cloudy with Light Rain 73 23 61 16 65 65 ESE 16 26 29.59 1002 8 13 0.00 0.00
9:53 pm 21:53 Mostly Cloudy with Light Rain 73 22.8 61 16.1 66 66 ESE 13 20 29.63 1003 10 16 0.06 1.52
10:41 pm 22:41 Mostly Cloudy with Nearby Thunderstorms 75 23.9 59 15 58 58 SSE 16 26 29.65 1004 10 16 0.00 0.03
10:53 pm 22:53 Windy with Storms Likely 75 23.9 59 15 58 58 SSE 29 46 29.65 1004 10 16 0.00 0.03
11:24 pm 23:24 Mostly Cloudy 72 22 63 17 73 73 SSE 23 37 29.68 1005 10 16 0.00 0.00
11:53 pm 23:53 Mostly Cloudy with Light Rain 72 22.2 63 17.2 73 73 SE 17 28 29.63 1004 10 16 0.00 0.03

Powered by AerisWeather